[[{"header":{"parameterUnit":"m.s-1","parameterCategory":1,"la1":30.2991,"la2":30.254,"lo1":-89.0895,"lo2":-89.0444,"dy":0.0017,"dx":0.0017,"nx":28,"ny":28,"refTime":"2024-06-09T21:00:00:Z","depth":0,"parameterNumber":2,"parameterNumberName":"U-component_of_WINDS"},"data":[0,0,0,0,0,0,0,0,0,0,0,0,0,0,0,0,0,0,0,0,0,0,0,0,0,0,0,0,0,0,0,0,0,0,0,0,0,0,0,0,0,0,0,0,0,0,0,0,0,0,0,0,0,0,0,0,0,0,0.9384,0.9384,0,0.9474,0.9475,0.9477,0.9494,0.9494,0.9493,0.9492,0.9589,0.9592,0.9596,0,0,0,0,0,0,0,0,0,0,0,0,0,0.9229,0.9232,0.9383,0.9385,0.9386,0.9474,0.9476,0.9477,0.9495,0.9494,0.9493,0.9492,0.9588,0.9592,0.9596,0,0,0,0,0,0,0,0,0,0,0,0,0,0.9306,0.9233,0.9383,0.9405,0.9408,0.9474,0.9476,0.9477,0.9495,0.9494,0.9493,0.9492,0.9587,0.9592,0.9597,0.9648,0,0,0.9611,0.9614,0,0,0,0,0,0,0,0,0.9301,0.9311,0.9401,0.9404,0.9407,0.9472,0.9457,0.9535,0.9495,0.9462,0.9492,0.9491,0.9551,0.9559,0.9579,0.9653,0.9657,0.9612,0.9615,0.9617,0.9618,0,0,0,0,0,0,0,0.9296,0.9308,0.942,0.9402,0.9406,0.9412,0.9421,0.9471,0.9512,0.9465,0.9466,0.9477,0.9553,0.9574,0.9581,0.9658,0.9612,0.9616,0.9619,0.9621,0.978,0.9782,0,0,0,0,0,0,0.9286,0.9303,0.9417,0.9422,0.935,0.9415,0.9426,0.9452,0.9511,0.9519,0.9477,0.9477,0.9566,0.9575,0.9585,0.9649,0.9617,0.9621,0.9624,0.9779,0.9781,0.9782,0,0,0,0,0,0,0.9283,0.9296,0.9413,0.9363,0.9378,0.9419,0.9448,0.9455,0.9476,0.9521,0.9528,0.9491,0.9566,0.9578,0.9632,0.9653,0.9624,0.9628,0.9777,0.9779,0.9781,0.9779,0,0,0,0,0,0,0.9278,0.9295,0.9314,0.9363,0.9381,0.9458,0.945,0.9457,0.9483,0.9484,0.9536,0.9543,0.9566,0.9625,0.9637,0.9659,0.9632,0.9776,0.9778,0.9781,0.9777,0.978,0.9783,0,0,0,0,0,0.9273,0.931,0.9315,0.9328,0.9405,0.9459,0.9469,0.9493,0.9485,0.9505,0.9534,0.9542,0.9649,0.963,0.9644,0.9668,0.9775,0.9778,0.978,0.9776,0.978,0.9783,0,0,0,0,0,0,0.9263,0.9317,0.9323,0.9377,0.9413,0.9462,0.9488,0.9496,0.9536,0.9535,0.9565,0.9576,0.9629,0.9654,0.9633,0.9721,0.9711,0.9717,0.9703,0.9707,0.971,0.9703,0.9636,0,0,0,0,0,0.9267,0.9305,0.9351,0.9394,0.9412,0.9447,0.9471,0.9486,0.9525,0.9541,0.9574,0.9613,0.9655,0.9683,0.9724,0.9781,0.9793,0.9804,0.9807,0.9809,0.9814,0.9847,0.9853,0.9792,0.9792,0.9792,0,0,0.9277,0.9311,0.9333,0.9393,0.9423,0.9463,0.946,0.9501,0.9532,0.9548,0.9601,0.9627,0.9672,0.9728,0.9754,0.975,0.9834,0.9813,0.9815,0.9818,0.985,0.9856,0.9861,0.9794,0.9793,0.9793,0,0,0.9313,0.9343,0.9382,0.9412,0.9457,0.948,0.9489,0.9537,0.9554,0.9608,0.9621,0.9658,0.973,0.9762,0.9787,0.9837,0.9845,0.985,0.9865,0.9896,0.9901,0.9906,0.9924,0.993,0.9854,0.9854,0.9854,0,0.9319,0.9378,0.9402,0.9443,0.947,0.9485,0.9527,0.9555,0.9611,0.963,0.9624,0.9716,0.9747,0.9811,0.9823,0.9843,0.9856,0.9844,0.9898,0.9903,0.9908,0.9925,0.9932,0.9854,0.9854,0.9854,0.9854,0,0.9384,0.9425,0.9452,0.9504,0.9534,0.9575,0.9606,0.9634,0.9647,0.9671,0.9725,0.9764,0.9813,0.983,0.9843,0.9896,0.9892,0.9892,0.9883,0.9913,0.993,0.9937,0.9855,0.9855,0.9855,0.9855,0,0,0.9417,0.9482,0.9492,0.9516,0.9567,0.96,0.9642,0.9689,0.9713,0.9751,0.9788,0.9849,0.985,0.9879,0.9896,0.9923,0.9961,0.9921,0.9922,0.9927,1.0021,1.0021,1.0028,0.9966,0.9968,0.9969,1.0018,0,0.946,0.9534,0.9557,0.962,0.9659,0.9674,0.9711,0.9747,0.9771,0.9808,0.9835,0.9877,0.9875,0.9892,0.992,0.995,0.998,0.9947,1.0002,1.0004,0.999,1.0037,1.0037,1.0081,1.0024,1.0026,1.0026,0,0.952,0.9558,0.9625,0.9671,0.9688,0.9721,0.9766,0.9801,0.9843,0.9858,0.989,0.9906,0.9952,0.9939,1.0004,0.9981,1.0005,1.0023,1.0025,1.0032,1.0017,1.0045,1.0095,1.0102,1.0037,1.0036,1.0035,0,0.9537,0.9606,0.9655,0.9675,0.973,0.9753,0.9777,0.9818,0.9845,0.9885,0.9903,0.9949,0.9974,1.001,1.0037,1.0026,1.01,1.0089,1.0114,1.0114,1.0129,1.0128,1.0185,1.0145,1.0144,1.0144,1.0144,0,0.9583,0.9623,0.9663,0.9693,0.9739,0.9766,0.9811,0.9836,0.9872,0.9908,0.9925,0.9959,0.9993,1.0032,1.0054,1.0104,1.0115,1.013,1.0135,1.0128,1.0126,1.0144,1.0142,1.0146,1.0146,1.0145,1.0145,0,0.961,0.9639,0.9693,0.9741,0.9754,0.9785,0.9827,0.9857,0.9881,0.9927,0.9939,0.9978,1.0024,1.0055,1.0115,1.013,1.0185,1.0189,1.017,1.0173,1.0196,1.0193,1.0266,1.0277,1.023,1.023,1.0231,0,0.9637,0.9668,0.9719,0.9744,0.9768,0.9808,0.9836,0.9863,0.9892,0.9942,0.9966,1.0013,1.0053,1.0126,1.0161,1.0207,1.0213,1.0235,1.022,1.0212,1.0213,1.0211,1.0215,1.0238,1.0238,1.0238,1.0238,0,0.9682,0.9695,0.9734,0.9777,0.981,0.9846,0.9882,0.9902,0.9936,0.9968,1.0015,1.0045,1.0106,1.0153,1.0202,1.0228,1.024,1.0243,1.0251,1.0245,1.0232,1.0239,1.0177,1.0241,1.0241,1.0241,1.0241,1.0241,0.9711,0.9739,0.9779,0.9822,0.9852,0.9886,0.9916,0.9945,0.9984,1.0034,1.0049,1.0098,1.014,1.0207,1.0234,1.0274,1.0272,1.0284,1.0287,1.0289,1.0289,1.0226,1.0283,1.0283,1.0283,1.0283,1.0283,0,0.9757,0.9783,0.9822,0.9872,0.9906,0.9913,0.9953,0.9982,1.0024,1.0062,1.01,1.0154,1.02,1.0238,1.0285,1.031,1.0316,1.0322,1.032,1.0326,1.0288,1.0277,1.0316,1.0316,1.0316,1.0316,1.0316,1.0316,0.9784,0.9833,0.9851,0.9915,0.9942,0.9989,1.0012,1.0043,1.0073,1.0133,1.0171,1.0195,1.0233,1.0283,1.0326,1.0336,1.0353,1.0357,1.0368,1.0332,1.0329,1.0325,1.0314,1.036,1.0361,1.0403,1.0403,1.0403]},{"header":{"parameterUnit":"m.s-1","parameterCategory":1,"la1":30.2991,"la2":30.254,"lo1":-89.0895,"lo2":-89.0444,"dy":0.0017,"dx":0.0017,"nx":28,"ny":28,"refTime":"2024-06-09T21:00:00:Z","depth":0,"parameterNumber":3,"parameterNumberName":"V-component_of_WINDS"},"data":[0,0,0,0,0,0,0,0,0,0,0,0,0,0,0,0,0,0,0,0,0,0,0,0,0,0,0,0,0,0,0,0,0,0,0,0,0,0,0,0,0,0,0,0,0,0,0,0,0,0,0,0,0,0,0,0,0,0,2.9886,2.9887,0,2.9901,2.9901,2.9901,2.9924,2.9924,2.9924,2.9925,2.9937,2.9937,2.9937,0,0,0,0,0,0,0,0,0,0,0,0,0,2.9874,2.9875,2.9886,2.9887,2.9887,2.9901,2.9901,2.9901,2.9924,2.9924,2.9925,2.9925,2.9937,2.9937,2.9937,0,0,0,0,0,0,0,0,0,0,0,0,0,2.9883,2.9875,2.9886,2.99,2.9901,2.9901,2.9901,2.9901,2.9923,2.9924,2.9925,2.9925,2.9937,2.9937,2.9937,2.9925,0,0,2.9937,2.9937,0,0,0,0,0,0,0,0,2.9883,2.9884,2.9897,2.9899,2.99,2.9911,2.9901,2.9909,2.9923,2.9915,2.9925,2.9926,2.9928,2.9929,2.993,2.9925,2.9926,2.9937,2.9937,2.9937,2.9937,0,0,0,0,0,0,0,2.9882,2.9883,2.9892,2.9898,2.9899,2.9904,2.9906,2.9903,2.9918,2.9916,2.9917,2.9919,2.9929,2.993,2.993,2.9926,2.9937,2.9937,2.9937,2.9937,2.9909,2.9908,0,0,0,0,0,0,2.988,2.9882,2.9892,2.9892,2.9893,2.9903,2.9906,2.9907,2.9918,2.992,2.9918,2.992,2.993,2.9931,2.9931,2.9915,2.9937,2.9937,2.9937,2.991,2.9909,2.9908,0,0,0,0,0,0,2.988,2.9881,2.9891,2.9888,2.989,2.9903,2.9904,2.9907,2.9908,2.992,2.9922,2.9917,2.993,2.9931,2.9926,2.9916,2.9937,2.9937,2.9911,2.9909,2.9908,2.9885,0,0,0,0,0,0,2.9879,2.988,2.9877,2.9888,2.989,2.9886,2.9904,2.9907,2.9908,2.991,2.9919,2.9921,2.9931,2.9926,2.9926,2.9916,2.9937,2.9911,2.991,2.9909,2.9886,2.9883,2.988,0,0,0,0,0,2.9879,2.9869,2.9876,2.9877,2.9885,2.9886,2.9887,2.9899,2.9908,2.9903,2.991,2.9921,2.9917,2.9925,2.9925,2.9916,2.9912,2.991,2.9909,2.9888,2.9884,2.988,0,0,0,0,0,0,2.9856,2.9871,2.9879,2.9873,2.9878,2.989,2.9885,2.9894,2.9896,2.9898,2.9912,2.9914,2.9906,2.9911,2.9919,2.9903,2.9916,2.9915,2.99,2.9896,2.9893,2.9892,2.9937,0,0,0,0,0,2.9851,2.9851,2.9863,2.9857,2.9859,2.9871,2.9872,2.988,2.9886,2.9888,2.9895,2.9899,2.9898,2.9898,2.9898,2.9887,2.9888,2.9881,2.9878,2.9875,2.9873,2.9865,2.9862,2.9903,2.9903,2.9903,0,0,2.9839,2.9847,2.9846,2.9852,2.9857,2.9856,2.9873,2.9871,2.9869,2.9887,2.9882,2.9887,2.9893,2.9884,2.9881,2.9887,2.9862,2.9873,2.9871,2.987,2.9863,2.9859,2.9856,2.9902,2.9902,2.9902,0,0,2.9817,2.9824,2.9818,2.9822,2.983,2.9838,2.9836,2.9846,2.985,2.9846,2.9858,2.9856,2.9856,2.9858,2.986,2.9837,2.9846,2.9836,2.9819,2.9812,2.9809,2.9806,2.9796,2.9792,2.9835,2.9835,2.9835,0,2.9801,2.98,2.9814,2.981,2.9812,2.9829,2.9822,2.9825,2.9832,2.9832,2.984,2.9839,2.9843,2.9834,2.9829,2.983,2.9827,2.9835,2.9808,2.9805,2.9803,2.9793,2.979,2.9833,2.9833,2.9834,2.9834,0,2.9779,2.9778,2.9773,2.9779,2.978,2.9775,2.9787,2.9786,2.9794,2.9801,2.9794,2.9801,2.9802,2.9801,2.9809,2.9792,2.9796,2.9806,2.9819,2.9797,2.9788,2.9785,2.9831,2.9832,2.9832,2.9833,0,0,2.9743,2.9756,2.9754,2.9756,2.9765,2.9764,2.9759,2.976,2.9758,2.9762,2.9757,2.9755,2.9764,2.9765,2.9774,2.9767,2.9746,2.9778,2.9778,2.977,2.9726,2.9717,2.9713,2.9753,2.9752,2.9752,2.9725,0,2.9721,2.9715,2.9726,2.9716,2.9714,2.9729,2.9724,2.9728,2.9734,2.9732,2.9738,2.9736,2.9749,2.975,2.9744,2.975,2.9737,2.9752,2.9746,2.9746,2.9743,2.9709,2.97,2.9674,2.9722,2.9721,2.9721,0,2.9695,2.9698,2.9687,2.9695,2.9694,2.969,2.9691,2.969,2.9694,2.9698,2.9699,2.9709,2.9703,2.9717,2.9708,2.9717,2.9716,2.9718,2.9717,2.9716,2.9731,2.9705,2.9667,2.9662,2.9716,2.9716,2.9716,0,2.9668,2.9668,2.9662,2.9663,2.9672,2.9669,2.9672,2.9677,2.9676,2.9677,2.9676,2.9677,2.9676,2.9675,2.9684,2.9693,2.9673,2.9688,2.9674,2.9674,2.9668,2.9668,2.9628,2.967,2.967,2.967,2.967,0,2.9641,2.9634,2.9649,2.9645,2.9636,2.9649,2.964,2.9645,2.9648,2.9644,2.9657,2.9653,2.9666,2.9662,2.9669,2.9659,2.9659,2.9661,2.9663,2.9659,2.9658,2.9657,2.9658,2.9669,2.9669,2.967,2.967,0,2.9609,2.9619,2.9612,2.9621,2.9623,2.9616,2.9623,2.9619,2.9625,2.962,2.9619,2.9629,2.9625,2.9634,2.9631,2.9636,2.9621,2.9626,2.962,2.9621,2.9606,2.9607,2.9562,2.9556,2.9603,2.9603,2.9603,0,2.9591,2.9585,2.9593,2.9592,2.9594,2.9592,2.9591,2.9603,2.9602,2.9605,2.9599,2.9597,2.9595,2.9588,2.9594,2.9591,2.9596,2.958,2.9595,2.9591,2.9593,2.9593,2.9591,2.9576,2.9576,2.9575,2.9575,0,2.9556,2.9561,2.9561,2.9561,2.956,2.956,2.9562,2.956,2.9572,2.9569,2.9566,2.9565,2.9562,2.9558,2.9557,2.9559,2.9568,2.957,2.9567,2.9562,2.9558,2.9558,2.9609,2.9571,2.9572,2.9572,2.9572,2.9572,2.9529,2.9524,2.9529,2.9527,2.9529,2.953,2.9526,2.9531,2.9529,2.9528,2.9535,2.9529,2.9531,2.953,2.9531,2.9526,2.9533,2.9528,2.9527,2.9525,2.9522,2.956,2.9526,2.9526,2.9526,2.9526,2.9526,0,2.9494,2.9498,2.9496,2.9497,2.9495,2.9505,2.9507,2.9504,2.9499,2.9501,2.9499,2.9493,2.9489,2.9495,2.9492,2.9486,2.949,2.9485,2.9484,2.9484,2.9517,2.9519,2.9481,2.9481,2.9481,2.9481,2.9481,2.9481,2.9476,2.9467,2.9472,2.9464,2.9468,2.9463,2.9462,2.9462,2.9464,2.9457,2.9454,2.9458,2.946,2.9457,2.9453,2.9455,2.9452,2.9445,2.9448,2.9478,2.9482,2.9486,2.9489,2.9445,2.9445,2.9415,2.9415,2.9415]}]]